Location: Cahas Mountain Overlook
(37.0833°N, 80.1000°W)
Time: 20:06:37
(UTC-04:00)

Explorer 7 - Pass Details

Date: 10 February 2026
Orbit: 430 x 541 km, 50.2° (Epoch: 13 March)

Event Time Altitude Azimuth Distance (km) Brightness Sun altitude
Rises 22:50:13 0° 314° (NW) 2,619 - -57.3°
Reaches altitude 10° 22:52:46 10° 330° (NNW) 1,752 - -57.7°
Maximum altitude 22:55:57 22° 23° (NNE) 1,180 - -58.2°
Drops below altitude 10° 22:59:11 10° 76° (ENE) 1,790 - -58.7°
Sets 23:01:49 0° 91° (E) 2,692 - -59.0°
